Youngstown, OH

2:50 AM EDT on August 20, 2017 (GMT -0400)
Youngstown-Warren Regional

Weather History for KYNG - August, 2012

Change the Weather History Date:

Friday, August 3, 2012

  Actual Average Record
Temperature  
Mean Temperature 75 °F 70 °F  
Max Temperature 90 °F 81 °F 97 °F (1930)
Min Temperature 60 °F 60 °F 48 °F (1976)
Degree Days  
Heating Degree Days 0 0  
Month to date heating degree days 0 0  
Since 1 June heating degree days 41 82  
Since 1 July heating degree days 0 13  
Cooling Degree Days 10 6  
Month to date cooling degree days 22 18  
Year to date cooling degree days 586 352  
Since 1 June cooling degree days 485 313  
Growing Degree Days 25 (Base 50)    
Moisture  
Dew Point 62 °F    
Average Humidity 66    
Maximum Humidity 90    
Minimum Humidity 41    
Precipitation  
Precipitation 0.00 in 0.12 in 1.77 in (1974)
Month to date precipitation 0.00 0.35  
Year to date precipitation 23.96 23.33  
Snow  
Snow 0.00 in 0.00 in - ()
Month to date snowfall 0.0 0.0  
Since 1 June snowfall T 0.0  
Since 1 July snowfall T 0.0  
Snow Depth 0.00 in    
Sea Level Pressure  
Sea Level Pressure 29.97 in    
Wind  
Wind Speed 5 mph (SE)    
Max Wind Speed 10 mph    
Max Gust Speed 14 mph    
Visibility 10 miles    
Events      
T = Trace of Precipitation, MM = Missing Value Source: NWS Daily Summary

Daily Weather History Graph

Daily Weather History Graph

Search for Another Location

Airport or City:

Trip Planner

Search our weather history database for the weather conditions in past years. The results will help you decide how hot, cold, wet, or windy it might be!

Date:

Astronomy

Aug. 03, 2012 Rise Set
Actual Time 6:20 AM EDT 8:36 PM EDT
Civil Twilight 5:49 AM EDT 9:07 PM EDT
Nautical Twilight 5:11 AM EDT 9:45 PM EDT
Astronomical Twilight 4:29 AM EDT 10:26 PM EDT
Moon 9:12 PM EDT (8/3) 8:03 AM EDT (8/3)
Length of Visible Light 15h 17m
Length of Day
14h 16m
Full, 97% of the Moon is Illuminated
Aug 3
Full
Aug 9
Last Quarter
Aug 17
New
Aug 24
First Quarter
Aug 31
Full

Hourly Weather History & Observations

Time (EDT) Temp. Heat Index Dew Point Humidity Pressure Visibility Wind Dir Wind Speed Gust Speed Precip Events Conditions
12:51 AM 64.4 °F - 59.0 °F 83% 29.95 in 10.0 mi Calm Calm - N/A   Mostly Cloudy
1:51 AM 62.1 °F - 57.9 °F 86% 29.92 in 10.0 mi ESE 4.6 mph - N/A   Mostly Cloudy
2:51 AM 63.0 °F - 59.0 °F 87% 29.93 in 10.0 mi ESE 3.5 mph - N/A   Mostly Cloudy
3:51 AM 63.0 °F - 59.0 °F 87% 29.94 in 10.0 mi ESE 3.5 mph - N/A   Mostly Cloudy
4:51 AM 62.1 °F - 59.0 °F 90% 29.93 in 10.0 mi East 3.5 mph - N/A   Mostly Cloudy
5:51 AM 61.0 °F - 57.9 °F 90% 29.94 in 10.0 mi ESE 5.8 mph - N/A   Mostly Cloudy
6:51 AM 63.0 °F - 59.0 °F 87% 29.96 in 10.0 mi ESE 5.8 mph - N/A   Mostly Cloudy
7:51 AM 70.0 °F - 62.1 °F 76% 29.97 in 10.0 mi SE 4.6 mph - N/A   Mostly Cloudy
8:51 AM 73.0 °F - 63.0 °F 71% 29.99 in 10.0 mi SE 3.5 mph - N/A   Mostly Cloudy
9:51 AM 78.1 °F - 64.0 °F 62% 30.00 in 10.0 mi SSE 3.5 mph - N/A   Mostly Cloudy
10:51 AM 82.0 °F 84.1 °F 66.0 °F 58% 29.99 in 10.0 mi SE 3.5 mph - N/A   Scattered Clouds
11:51 AM 84.9 °F 86.6 °F 64.9 °F 51% 29.99 in 10.0 mi South 4.6 mph - N/A   Scattered Clouds
12:51 PM 88.0 °F 89.6 °F 64.9 °F 46% 29.99 in 10.0 mi Variable 3.5 mph - N/A   Scattered Clouds
1:51 PM 88.0 °F 88.4 °F 62.1 °F 42% 29.99 in 10.0 mi ESE 4.6 mph - N/A   Partly Cloudy
2:51 PM 89.1 °F 91.3 °F 66.0 °F 46% 29.98 in 10.0 mi ESE 9.2 mph - N/A   Partly Cloudy
3:51 PM 90.0 °F 90.3 °F 62.1 °F 39% 29.96 in 10.0 mi SSE 5.8 mph - N/A   Partly Cloudy
4:51 PM 90.0 °F 90.3 °F 62.1 °F 39% 29.96 in 10.0 mi ESE 6.9 mph - N/A   Partly Cloudy
5:51 PM 89.1 °F 90.0 °F 63.0 °F 42% 29.96 in 10.0 mi SE 8.1 mph - N/A   Partly Cloudy
6:51 PM 88.0 °F 89.3 °F 64.0 °F 45% 29.96 in 10.0 mi ESE 5.8 mph - N/A   Partly Cloudy
7:51 PM 82.9 °F 85.0 °F 66.0 °F 56% 29.97 in 10.0 mi ESE 5.8 mph - N/A   Partly Cloudy
8:51 PM 78.1 °F - 66.9 °F 68% 29.98 in 9.0 mi ESE 4.6 mph - N/A   Scattered Clouds
9:51 PM 75.2 °F - 66.2 °F 73% 30.02 in 9.0 mi ESE 5.8 mph - N/A   Scattered Clouds
10:51 PM 75.9 °F - 66.0 °F 71% 30.00 in 9.0 mi ESE 5.8 mph - N/A   Partly Cloudy